This demonstration page uses our WeatherBlox Daily Observations layout. Learn more.

Left ArrowRight Arrow

38.88101, -77.10428

Hourly Observations for May 14, 2022

Temp ( °F °C ) Dew Point ( °F °C ) Humidity (%) Winds ( mph kmh ) Pressure ( in mb ) Visibility ( mi km ) Precip ( " mm )
12:14 am 00:14 Cloudy 69 20.6 64 17.8 84 84 ESE 7 11 30.13 1020 10 16 0.00 0.00
12:52 am 00:52 Cloudy 69 20.6 64 17.8 84 84 SE 8 13 30.12 1020 10 16 0.00 0.00
1:11 am 01:11 Cloudy 68 20 64 17.8 87 87 SE 5 7 30.12 1020 10 16 0.00 0.00
1:44 am 01:44 Cloudy 68 20 64 17.8 87 87 SSE 6 9 30.10 1019 10 16 0.00 0.00
1:52 am 01:52 Cloudy 68 20 64 17.8 87 87 SSE 6 9 30.10 1019 10 16 0.00 0.00
2:23 am 02:23 Cloudy 68 20 64 17.8 87 87 SSE 7 11 30.09 1019 10 16 0.00 0.00
2:52 am 02:52 Cloudy 68 20 64 17.8 87 87 S 5 7 30.09 1019 10 16 0.00 0.00
3:21 am 03:21 Cloudy 67 19.4 64 17.8 91 91 S 5 7 30.08 1019 10 16 0.00 0.00
3:38 am 03:38 Cloudy 67 19.4 64 17.8 91 91 SSE 5 7 30.08 1019 10 16 0.00 0.00
3:49 am 03:49 Cloudy 68 20 64 18 88 88 SSE 6 9 30.08 1019 10 16 0.00 0.00
3:52 am 03:52 Cloudy 67 19.4 64 17.8 91 91 SSE 7 11 30.08 1019 10 16 0.00 0.00
4:17 am 04:17 Cloudy 67 19.4 64 17.8 91 91 SSE 6 9 30.08 1019 9 14 0.00 0.00
4:25 am 04:25 Cloudy with Drizzle 67 19.4 64 17.8 91 91 SSE 6 9 30.09 1019 7 11 0.00 0.00
4:52 am 04:52 Cloudy with Drizzle 67 19.4 64 17.8 91 91 Calm 30.07 1018 7 11 0.00 0.00
5:23 am 05:23 Cloudy 66 18.9 64 17.8 93 93 Calm 30.07 1018 10 16 0.00 0.00
5:29 am 05:29 Cloudy 67 19.4 64 17.8 91 91 Calm 30.07 1018 10 16 0.00 0.00
5:37 am 05:37 Cloudy 67 19.4 64 17.8 91 91 Calm 30.07 1018 10 16 0.00 0.00
5:52 am 05:52 Cloudy 66 18.9 63 17.2 90 90 Calm 30.06 1018 9 14 0.00 0.00
6:52 am 06:52 Cloudy 66 18.9 63 17.2 90 90 NE 6 9 30.07 1018 9 14 0.00 0.00
7:03 am 07:03 Cloudy 66 18.9 63 17.2 90 90 ENE 6 9 30.08 1019 9 14 0.00 0.00
7:44 am 07:44 Cloudy with Mist and Fog 66 18.9 63 17.2 90 90 ENE 7 11 30.07 1018 6 10 0.00 0.00
7:52 am 07:52 Cloudy with Drizzle 66 18.9 63 17.2 90 90 NE 7 11 30.07 1018 2 3 0.00 0.00
7:55 am 07:55 Cloudy with Drizzle 66 18.9 63 17.2 90 90 ENE 7 11 30.08 1019 2 3 0.00 0.00
8:20 am 08:20 Cloudy with Drizzle 67 19.4 64 17.8 91 91 ENE 5 7 30.08 1019 2 2 0.00 0.00
8:30 am 08:30 Cloudy with Drizzle 66 18.9 64 17.8 93 93 E 5 7 30.09 1019 2 3 0.00 0.00
8:35 am 08:35 Cloudy with Drizzle 67 19.4 64 17.8 91 91 Calm 30.09 1019 3 5 0.00 0.00
8:40 am 08:40 Cloudy with Drizzle 67 19.4 64 17.8 91 91 Calm 30.09 1019 3 5 0.00 0.00
8:52 am 08:52 Cloudy with Drizzle 67 19.4 64 17.8 91 91 NNE 3 6 30.08 1019 4 6 0.00 0.00
9:05 am 09:05 Cloudy 67 19.4 64 17.8 91 91 NE 5 7 30.08 1019 10 16 0.00 0.00
9:20 am 09:20 Cloudy with Light Rain 68 20 64 17.8 87 87 ENE 7 11 30.07 1018 10 16 0.00 0.00
9:30 am 09:30 Cloudy 68 20 64 17.8 87 87 E 7 11 30.07 1018 10 16 0.00 0.00
9:52 am 09:52 Cloudy 69 20.6 64 17.8 84 84 NE 8 13 30.06 1018 10 16 0.00 0.00
10:02 am 10:02 Cloudy 69 20.6 64 17.8 84 84 NE 7 11 30.07 1018 10 16 0.00 0.00
10:04 am 10:04 Cloudy 69 20.6 64 17.8 84 84 NE 7 11 30.07 1018 10 16 0.00 0.00
10:06 am 10:06 Cloudy 69 20.6 64 17.8 84 84 NE 7 11 30.07 1018 10 16 0.00 0.00
10:52 am 10:52 Cloudy 69 20.6 64 17.8 84 84 ENE 7 11 30.07 1018 10 16 0.00 0.00
11:52 am 11:52 Cloudy 69 20.6 64 17.8 84 84 ENE 9 15 30.05 1018 10 16 0.00 0.00
12:52 pm 12:52 Cloudy 70 21.1 64 17.8 82 82 ENE 6 9 30.04 1017 10 16 0.00 0.00
1:06 pm 13:06 Cloudy 71 21.7 64 17.8 79 79 NE 3 6 30.03 1017 10 16 0.00 0.00
1:52 pm 13:52 Cloudy 71 21.7 64 17.8 79 79 ESE 8 13 30.01 1016 10 16 0.00 0.00
2:26 pm 14:26 Cloudy with Light Rain 70 21.1 64 17.8 82 82 ESE 6 9 30.00 1016 10 16 0.00 0.00
2:47 pm 14:47 Cloudy with Light Rain 70 21 64 18 83 83 ESE 5 7 30.00 1016 10 16 0.00 0.00
2:52 pm 14:52 Cloudy with Light Rain 70 21.1 64 17.8 82 82 E 5 7 30.00 1016 10 16 0.00 0.00
3:47 pm 15:47 Cloudy with Light Rain 72 22 64 18 78 78 Calm 29.99 1016 10 16 0.00 0.00
3:52 pm 15:52 Cloudy with Light Rain 71 21.7 65 18.3 81 81 Calm 29.98 1015 10 16 0.00 0.00
4:20 pm 16:20 Cloudy with Light Rain 71 21.7 65 18.3 81 81 Calm 29.98 1015 10 16 0.00 0.00
4:52 pm 16:52 Cloudy 71 21.7 65 18.3 81 81 E 6 9 29.96 1015 10 16 0.00 0.00
5:52 pm 17:52 Cloudy 70 21.1 65 18.3 84 84 S 3 6 29.95 1014 10 16 0.00 0.00
6:52 pm 18:52 Cloudy 69 20.6 63 17.2 81 81 SSE 3 6 29.94 1014 10 16 0.00 0.00
7:52 pm 19:52 Cloudy 68 20 63 17.2 84 84 ESE 3 6 29.93 1014 10 16 0.00 0.00
8:15 pm 20:15 Mostly Cloudy 68 20 63 17.2 84 84 E 5 7 29.93 1014 10 16 0.00 0.00
8:52 pm 20:52 Cloudy 67 19.4 63 17.2 87 87 ESE 5 7 29.94 1014 10 16 0.00 0.00
9:52 pm 21:52 Cloudy 67 19.4 63 17.2 87 87 Calm 29.96 1015 10 16 0.00 0.00
10:02 pm 22:02 Mostly Cloudy 66 18.9 63 17.2 90 90 Calm 29.96 1015 10 16 0.00 0.00
10:36 pm 22:36 Cloudy 67 19.4 63 17.2 87 87 SSE 5 7 29.96 1015 10 16 0.00 0.00
10:52 pm 22:52 Cloudy 66 18.9 63 17.2 90 90 S 5 7 29.96 1015 10 16 0.00 0.00
11:52 pm 23:52 Cloudy 65 18.3 63 17.2 93 93 S 6 9 29.95 1014 10 16 0.00 0.00

Powered by AerisWeather